Location: *
(57.8420°S, 159.8600°W)
Time: 11:21:07
(UTC+00:00)

CZ-2C R/B - Pass Details

Date: 18 May 2021
Orbit: 704 x 907 km, 98.0° (Epoch: 22 June)

Event Time Altitude Azimuth Distance (km) Brightness Sun altitude
Exits shadow 05:19:01 32° 30° (NNE) 1,213 3.8 -22.2°
Drops below altitude 10° 05:21:53 10° 7° (N) 2,196 5.3 -22.6°
Sets 05:24:13 0° 1° (N) 3,113 6.2 -22.9°
